Location: ?????????
(41.1143°N, 22.7905°E)
Time: 05:40:35
(UTC+00:00)

COSMO-SKYMED 1 - Pass Details

Date: 20 March 2026
Orbit: 576 x 578 km, 97.9° (Epoch: 15 April)

Event Time Altitude Azimuth Distance (km) Brightness Sun altitude
Rises 17:14:50 0° 8° (N) 2,799 5.9 -7.2°
Reaches altitude 10° 17:17:01 10° 5° (N) 1,895 5.1 -7.6°
Maximum altitude 17:21:04 61° 286° (WNW) 658 3.1 -8.4°
Drops below altitude 10° 17:25:05 10° 206° (SSW) 1,880 5.3 -9.1°
Sets 17:27:14 0° 203° (SSW) 2,773 6.1 -9.5°
